"Pseudo-MPEC" for C0EA6R5

Created 2022 Nov 26 23:22:06 UT using Find_Orb

Click here for an explanation of pseudo-MPECs

 
 Astrometry: 
     C0EA6R5* C2022 11 24B)fqSKEUOUtpJ4NQZQJ:1HP[]BF#]k%t\P'-P7\+1,/[a4f1(w3YV00
     C0EA6R5  C2022 11 243qU3N8Xkq,'h5R%K76XGjm.%Ys-0-@wXP0,BhQ:uYp=HHBs_2+`#V00
     C0EA6R5  C2022 11 24Rn\ehiPOdAstrometryMa:8G\ZyP/2LZHn-b[m8yqte9=;B'B]uZV00
     C0EA6R5  C2022 11 24*2;)J;=QO?E][Z*^r)/lHdcxk`[Ate-iII:@kn:j+uKi3wrvjAxTV00
     C0EA6R5 mC2022 11 25^Pyx1tsQ'b+V%!f?FKoq:(ngY8.1FFbFEstJZ$a7wredacted;f8V00
     C0EA6R5 mC2022 11 25=,^iU/]7XJclickpJ2(q3jqX=kPBGdF.!wun;[,^6pAMNFxR2IEJV00
     C0EA6R5 mC2022 11 25@Wgfa/3L0herev'-Ku,\`vR\#Z(!2n'\:QVqsvY(0_l,fWV=R=9*V00
     C0EA6R5 mC2022 11 25S[rPOyfC+wo$s(`]gSC--IcqUd_Y[#nS.x,NA7K6oyrV\_cmpZpYV00
     C0EA6R5 KC2022 11 26RL:peMQCv*+Nfor7Yo(+`R^2b@rKF?u[iTgoH][PiXLscdBIG'cyH21
     C0EA6R5 KC2022 11 26ev;`Hf`gaA0o.rF;H5sNb\('X+Nexplanation:o'%EBeGbL4IGxH21

Station data:
(H21) Astronomical Research Observatory, Westfield  (N39.483054 W87.968270)
   US/Illinois.  Observer R. Holmes. Measurers S. Foglia, L. Buzzi, T.
   Linder, R. Holmes. 0.76-m f/3.0 astrograph + CCD0.81-m f/4.0 astrograph +
   CCD0.61-m f/4.5 astrograph + CCD0.40-m f/5.32 astrograph + CCD.
(V00) Kitt Peak-Bok  (N31.963125 W111.600190)  US/Arizona.  Observers T. A.
   Pruyne, B. M. Africano, E. J. Christensen, G. A. Farneth, D. C. Fuls, A.
   R. Gibbs, A. D. Grauer, H. Gröller, J. A. Johnson, R. A. Kowalski, S. M.
   Larson, G. J. Leonard, D. Rankin, R. L. Seaman, F. C. Shelly, K. W.
   Wierzchoś. 2.25-m reflector + CCD.

Orbital elements:  C0EA6R5
   Perihelion 2022 Jul 27.13824 TT =  3:19:04 (JD 2459787.63824)
Epoch 2022 Nov 26.0 TT = JDT 2459909.5   Earth MOID: 0.2561   AutoNEOCP
M  78.84000939                      (J2000 ecliptic)
n   0.64696268     Peri.  108.53396
a   1.32398550     Node   230.56254
e   0.0827756      Incl.    9.44567
P   1.52/556.44d   H   22.9     G   0.15   q 1.21439172  Q 1.43357927
From 10 observations 2022 Nov. 24-26 (45.4 hr); mean residual 1".73
Residuals in arcseconds: 
221124 V00  .38-  1.1+    221125 V00  .29+  2.5-    221126 H21  .22-  3.4+    
221124 V00  .27-  1.2+    221125 V00  .12-  2.6-    221126 H21  .12+  3.3+    
221124 V00  .09+  1.0+    221125 V00  .10-  3.2-    
221124 V00  .52+  1.1+    221125 V00  .07+  2.9-    

Ephemerides (geocentric):
Date (UTC) HH   RA             Dec           delta  r     elong  mag
---- --------  ------------   ------------  ------ ------ -----  ---
2022 11 26 23  05 12 13.209   +11 55 19.80  .33771 1.3129 162.5 21.9
2022 11 27 00  05 12 09.101   +11 54 13.26  .33773 1.3129 162.5 21.9
2022 11 27 01  05 12 04.991   +11 53 06.74  .33774 1.3130 162.5 21.9
2022 11 27 02  05 12 00.878   +11 52 00.26  .33775 1.3130 162.6 21.9
2022 11 27 03  05 11 56.763   +11 50 53.81  .33776 1.3131 162.6 21.9
2022 11 27 04  05 11 52.646   +11 49 47.39  .33777 1.3131 162.6 21.9
2022 11 27 05  05 11 48.527   +11 48 41.01  .33779 1.3132 162.7 21.9
2022 11 27 06  05 11 44.405   +11 47 34.65  .33780 1.3132 162.7 21.9
2022 11 27 07  05 11 40.282   +11 46 28.33  .33781 1.3133 162.7 21.9
2022 11 27 08  05 11 36.156   +11 45 22.05  .33782 1.3133 162.8 21.9
2022 11 27 09  05 11 32.028   +11 44 15.80  .33784 1.3134 162.8 21.9
2022 11 27 10  05 11 27.898   +11 43 09.58  .33785 1.3134 162.8 21.9
2022 11 27 11  05 11 23.766   +11 42 03.39  .33787 1.3135 162.9 21.9
2022 11 27 12  05 11 19.632   +11 40 57.24  .33788 1.3135 162.9 21.9
2022 11 27 13  05 11 15.496   +11 39 51.12  .33789 1.3136 162.9 21.9
2022 11 27 14  05 11 11.357   +11 38 45.04  .33791 1.3136 163.0 21.9
2022 11 27 15  05 11 07.217   +11 37 38.99  .33792 1.3137 163.0 21.9
2022 11 27 16  05 11 03.075   +11 36 32.98  .33794 1.3137 163.1 21.9
2022 11 27 17  05 10 58.931   +11 35 27.00  .33796 1.3138 163.1 21.9
2022 11 27 18  05 10 54.785   +11 34 21.05  .33797 1.3139 163.1 21.9
2022 11 27 19  05 10 50.636   +11 33 15.14  .33799 1.3139 163.2 21.9
2022 11 27 20  05 10 46.486   +11 32 09.27  .33801 1.3140 163.2 21.9
2022 11 27 21  05 10 42.335   +11 31 03.43  .33802 1.3140 163.2 21.9
2022 11 27 22  05 10 38.181   +11 29 57.63  .33804 1.3141 163.3 21.9
2022 11 27 23  05 10 34.025   +11 28 51.87  .33806 1.3141 163.3 21.9
2022 11 28 00  05 10 29.868   +11 27 46.14  .33807 1.3142 163.3 21.9
2022 11 28 01  05 10 25.709   +11 26 40.44  .33809 1.3142 163.4 21.9
2022 11 28 02  05 10 21.548   +11 25 34.78  .33811 1.3143 163.4 21.9
2022 11 28 03  05 10 17.385   +11 24 29.16  .33813 1.3143 163.4 21.9
2022 11 28 04  05 10 13.220   +11 23 23.58  .33815 1.3144 163.4 21.9
2022 11 28 05  05 10 09.054   +11 22 18.03  .33817 1.3144 163.5 21.9
2022 11 28 06  05 10 04.886   +11 21 12.52  .33819 1.3145 163.5 21.9
2022 11 28 07  05 10 00.716   +11 20 07.05  .33821 1.3145 163.5 21.9
2022 11 28 08  05 09 56.545   +11 19 01.62  .33823 1.3146 163.6 21.9
2022 11 28 09  05 09 52.372   +11 17 56.22  .33825 1.3146 163.6 21.9
2022 11 28 10  05 09 48.197   +11 16 50.86  .33827 1.3147 163.6 21.9
2022 11 28 11  05 09 44.021   +11 15 45.54  .33829 1.3147 163.7 21.9
2022 11 28 12  05 09 39.843   +11 14 40.26  .33831 1.3148 163.7 21.9
2022 11 28 13  05 09 35.664   +11 13 35.01  .33833 1.3148 163.7 21.9
2022 11 28 14  05 09 31.483   +11 12 29.81  .33835 1.3149 163.8 21.9
2022 11 28 15  05 09 27.300   +11 11 24.64  .33838 1.3149 163.8 21.9
2022 11 28 16  05 09 23.116   +11 10 19.52  .33840 1.3150 163.8 21.9
2022 11 28 17  05 09 18.931   +11 09 14.43  .33842 1.3150 163.9 21.9
2022 11 28 18  05 09 14.744   +11 08 09.38  .33844 1.3151 163.9 21.9
2022 11 28 19  05 09 10.555   +11 07 04.37  .33847 1.3151 163.9 21.9
2022 11 28 20  05 09 06.365   +11 05 59.40  .33849 1.3152 163.9 21.9
2022 11 28 21  05 09 02.174   +11 04 54.47  .33851 1.3152 164.0 21.9
2022 11 28 22  05 08 57.981   +11 03 49.58  .33854 1.3153 164.0 21.9